Regional Weather Roundup
Issued by NWS Newport/Morehead, NC

Current Version | Previous Version | Text Only | Print | Product List | Glossary Off
Versions: 1 2 3 4 5 6 7 8 9 10 11 12 13 14 15 16 17 18 19 20 21 22 23 24 25 26 27 28 29 30 31 32 33 34 35 36 37 38 39 40 41 42 43 44 45 46 47 48 49 50
000 ASUS42 KMHX 220525 RWRMHX WEATHER ROUNDUP FOR EASTERN NORTH CAROLINA NATIONAL WEATHER SERVICE NEWPORT/MOREHEAD CITY NC 1200 AM EST WED FEB 22 2017 NOTE: "FAIR" INDICATES FEW OR NO CLOUDS BELOW 12,000 FEET WITH NO SIGNIFICANT WEATHER AND/OR OBSTRUCTIONS TO VISIBILITY NCZ015>017-031-032-045>047-102-103-220600- NORTH COAST CITY SKY/WX TMP DP RH WIND PRES REMARKS EDENTON CLOUDY 46 44 91 CALM 30.13F ELIZABETH CITY PTCLDY 47 45 93 E3 30.14F KITTY HAWK NOT AVBL MANTEO CLOUDY 51 50 99 E6 30.13F $$ NCZ045>047-081-094-103-104-220600- CENTRAL COAST CITY SKY/WX TMP DP RH WIND PRES REMARKS FRISCO MOCLDY 61 50 67 SE6 30.13F $$ NCZ095-097-098-100-101-220600- SOUTHERN COAST CITY SKY/WX TMP DP RH WIND PRES REMARKS BEAUFORT CLOUDY 53 51 93 E6 30.11F CEDAR ISLAND NOT AVBL JACKSONVILLE CLOUDY 53 52 96 E5 30.10F PINEY ISLAND MOCLDY N/A N/A N/A E6 30.11F WILMINGTON CLOUDY 51 50 96 NE5 30.09F $$ NCZ011>013-027>030-043-044-078>080-089-090>093-098-220600- COASTAL PLAIN CITY SKY/WX TMP DP RH WIND PRES REMARKS AHOSKIE N/A 46 42 87 CALM 30.12F CLINTON PTCLDY 54 51 90 CALM 30.09F ELIZABETHTOWN MOCLDY 55 52 87 E3 30.09F GOLDSBORO PTCLDY 51 51 100 E3 30.08F GREENVILLE PTCLDY 46 45 93 CALM 30.12F HAVELOCK CLOUDY 52 50 93 CALM 30.12F FOG KENANSVILLE NOT AVBL KINSTON MOCLDY 52 49 89 E3 30.12F NEW BERN CLOUDY 49 49 100 CALM 30.13F RICHLANDS CLOUDY 49 48 97 NE3 30.11F ROCKY MOUNT PTCLDY 48 46 93 CALM 30.11F WASHINGTON NOT AVBL WHITEVILLE MOCLDY 57 53 86 E5 30.08F $$ AMZ130-135-150-152-154-156-158-170-250-252-270-ANZ085-086-088-633-658-670-220600- MARINE OBSERVATIONS STATION/POSITION TIME TEMP WIND PRES WAVE SWELL AIR SEA DIR/SP/G HT/PER HT/PER (UTC) (F) (DEG/KT/KT) (MB) (FT/S) (FT/S) CHESAPEAKE LIGHT NOT AVBL 64 E VA BEACH 0450 54 53 100/ 6/ 8 1020.3 4/ 8 3/ 8 DUCK 0500 49 49 110/ 4/ 5 1019.7 2 E DUCK 0500 49 N/A 4/ 8 OREGON INLET 0500 50 51 60/ 4/ 4 1020.2 13E OREGON INLT NOT AVBL HATTERAS CG 0500 61 58 150/ 6/ 8 1019.9 DIAMOND BUOY 0450 63 74 120/ 6/ 8 1020.6 4/10 3/10 CAPE LOOKOUT 0500 62 110/ 7/ 7 1019.2 BEAUFORT LAB 0500 54 54 CALM / 1 1018.5 30 SE NEW RVR IN 0508 65 150/ 10/ 14 1019.0 30 SE NEW RVR IN 0443 69 N/A 4/ 7 27 SE WRIGHTSVLE 0508 66 65 130/ 10/ 14 1017.7 5 SE WRIGHTSVLE 0508 59 56 100/ 4/ 8 1018.5 225 S CAPE HAT 0450 64 71 90/ 12/ 16 1019.1 5/ 8 3/ 8 41 SE CHARLESTON 0450 70 69 130/ 12/ 14 1016.3 4/ 6 2/ 8 $$

USA.gov is the U.S. government's official web portal to all federal, state and local government web resources and services.